When you browse on this site, cookies collect data to enhance your experience and personalize the content and advertising you see.
Visit our Privacy Policy to learn more. By continuing to use the site, you agree to this use of cookies and data.
  • In Österreich
  • Länderverzeichnis
  • Für 7 Tage
  • Wassertemperatur
  • Wetterkarte
  • News
  • Widgets
  • user-avatar
    Anmelden

    Stündliche Wetter Stara Sagora

    Heute, 3 Juni, Mittwoch

    Zeit Temperatur Niederschläge Wind Luftdruck Luftfeuchtigkeit
    00:00 +11°C° 0 mm 1 m/S 736 mmHg 82%
    01:00 +10°C° 0 mm 1 m/S 736 mmHg 82%
    02:00 +10°C° 0 mm 1 m/S 737 mmHg 82%
    03:00 +10°C° 0 mm 1 m/S 736 mmHg 83%
    04:00 +9°C° 0 mm 1 m/S 736 mmHg 83%
    05:00 +9°C° 0 mm 1 m/S 736 mmHg 84%
    06:00 +11°C° 0 mm 1 m/S 736 mmHg 78%
    07:00 +13°C° 0 mm 1 m/S 737 mmHg 73%
    08:00 +15°C° 0 mm 1 m/S 737 mmHg 67%
    09:00 +18°C° 0 mm 1 m/S 737 mmHg 63%
    10:00 +19°C° 0 mm 1 m/S 737 mmHg 58%
    11:00 +20°C° 0 mm 1 m/S 737 mmHg 54%
    12:00 +21°C° 0.2 mm 1 m/S 737 mmHg 54%
    13:00 +21°C° 0.2 mm 1 m/S 736 mmHg 54%
    14:00 +22°C° 0.2 mm 1 m/S 736 mmHg 54%
    15:00 +21°C° 0.9 mm 1 m/S 736 mmHg 59%
    16:00 +19°C° 0.9 mm 2 m/S 736 mmHg 65%
    17:00 +19°C° 0.9 mm 2 m/S 735 mmHg 70%
    18:00 +17°C° 0.3 mm 2 m/S 735 mmHg 75%
    19:00 +16°C° 0.3 mm 1 m/S 736 mmHg 81%
    20:00 +14°C° 0.3 mm 1 m/S 736 mmHg 86%
    21:00 +13°C° 0 mm 1 m/S 736 mmHg 87%
    22:00 +13°C° 0 mm 1 m/S 736 mmHg 88%
    23:00 +12°C° 0 mm 1 m/S 736 mmHg 89%

    Morgen, 4 Juni, Donnerstag

    Zeit Temperatur Niederschläge Wind Luftdruck Luftfeuchtigkeit
    00:00 +12°C° 0 mm 1 m/S 736 mmHg 89%
    01:00 +12°C° 0 mm 1 m/S 736 mmHg 89%
    02:00 +11°C° 0 mm 0 m/S 736 mmHg 89%
    03:00 +11°C° 0 mm 1 m/S 736 mmHg 89%
    04:00 +11°C° 0 mm 1 m/S 736 mmHg 89%
    05:00 +11°C° 0 mm 1 m/S 736 mmHg 89%
    06:00 +13°C° 0 mm 1 m/S 736 mmHg 85%
    07:00 +15°C° 0 mm 1 m/S 736 mmHg 80%
    08:00 +16°C° 0 mm 1 m/S 736 mmHg 76%
    09:00 +18°C° 0 mm 2 m/S 737 mmHg 69%
    10:00 +20°C° 0 mm 2 m/S 737 mmHg 62%
    11:00 +23°C° 0 mm 2 m/S 738 mmHg 55%
    12:00 +24°C° 0.1 mm 3 m/S 737 mmHg 52%
    13:00 +25°C° 0.1 mm 3 m/S 737 mmHg 49%
    14:00 +26°C° 0.1 mm 3 m/S 737 mmHg 47%
    15:00 +26°C° 0.1 mm 3 m/S 737 mmHg 52%
    16:00 +25°C° 0.1 mm 4 m/S 737 mmHg 57%
    17:00 +25°C° 0.1 mm 4 m/S 737 mmHg 62%
    18:00 +22°C° 0.1 mm 3 m/S 737 mmHg 70%
    19:00 +20°C° 0.1 mm 3 m/S 737 mmHg 77%
    20:00 +18°C° 0.1 mm 2 m/S 737 mmHg 84%
    21:00 +17°C° 0 mm 2 m/S 737 mmHg 86%
    22:00 +16°C° 0 mm 2 m/S 738 mmHg 88%
    23:00 +16°C° 0 mm 2 m/S 738 mmHg 89%

    übermorgen, 5 Juni, Freitag

    Zeit Temperatur Niederschläge Wind Luftdruck Luftfeuchtigkeit
    00:00 +15°C° 0 mm 1 m/S 738 mmHg 90%
    01:00 +15°C° 0 mm 1 m/S 738 mmHg 91%
    02:00 +14°C° 0 mm 1 m/S 738 mmHg 92%
    03:00 +14°C° 0 mm 1 m/S 738 mmHg 92%
    04:00 +14°C° 0 mm 1 m/S 738 mmHg 93%
    05:00 +13°C° 0 mm 1 m/S 737 mmHg 93%
    06:00 +15°C° 0 mm 1 m/S 738 mmHg 89%
    07:00 +17°C° 0 mm 2 m/S 738 mmHg 85%
    08:00 +19°C° 0 mm 2 m/S 738 mmHg 80%
    09:00 +20°C° 0 mm 3 m/S 738 mmHg 74%
    10:00 +22°C° 0 mm 3 m/S 738 mmHg 68%
    11:00 +25°C° 0 mm 4 m/S 738 mmHg 61%
    12:00 +26°C° 0 mm 5 m/S 737 mmHg 59%
    13:00 +26°C° 0 mm 6 m/S 737 mmHg 57%
    14:00 +27°C° 0 mm 7 m/S 737 mmHg 55%
    15:00 +26°C° 0 mm 7 m/S 737 mmHg 58%
    16:00 +26°C° 0 mm 7 m/S 736 mmHg 60%
    17:00 +24°C° 0 mm 7 m/S 736 mmHg 63%
    18:00 +22°C° 0 mm 6 m/S 736 mmHg 68%
    19:00 +20°C° 0 mm 5 m/S 736 mmHg 73%
    20:00 +18°C° 0 mm 4 m/S 736 mmHg 78%
    21:00 +18°C° 0 mm 4 m/S 736 mmHg 81%
    22:00 +17°C° 0 mm 3 m/S 737 mmHg 83%
    23:00 +16°C° 0 mm 3 m/S 737 mmHg 85%

    6 Juni, Samstag

    Zeit Temperatur Niederschläge Wind Luftdruck Luftfeuchtigkeit
    00:00 +16°C° 0 mm 3 m/S 737 mmHg 87%
    01:00 +15°C° 0 mm 2 m/S 737 mmHg 88%
    02:00 +15°C° 0 mm 2 m/S 737 mmHg 89%
    03:00 +15°C° 0 mm 2 m/S 737 mmHg 88%
    04:00 +15°C° 0 mm 2 m/S 737 mmHg 87%
    05:00 +16°C° 0 mm 2 m/S 737 mmHg 86%
    06:00 +17°C° 0 mm 2 m/S 738 mmHg 81%
    07:00 +18°C° 0 mm 2 m/S 738 mmHg 77%
    08:00 +20°C° 0 mm 2 m/S 738 mmHg 72%
    09:00 +21°C° 0 mm 2 m/S 739 mmHg 68%
    10:00 +22°C° 0 mm 3 m/S 739 mmHg 64%
    11:00 +24°C° 0 mm 3 m/S 739 mmHg 59%
    12:00 +24°C° 0.1 mm 3 m/S 739 mmHg 57%
    13:00 +25°C° 0.1 mm 3 m/S 739 mmHg 55%
    14:00 +25°C° 0.1 mm 3 m/S 739 mmHg 53%
    15:00 +25°C° 0 mm 3 m/S 738 mmHg 53%
    16:00 +24°C° 0 mm 3 m/S 738 mmHg 53%
    17:00 +23°C° 0 mm 4 m/S 738 mmHg 53%
    18:00 +21°C° 0 mm 3 m/S 738 mmHg 57%
    19:00 +20°C° 0 mm 2 m/S 738 mmHg 60%
    20:00 +19°C° 0 mm 1 m/S 738 mmHg 63%
    21:00 +18°C° 0 mm 1 m/S 738 mmHg 65%
    22:00 +18°C° 0 mm 1 m/S 738 mmHg 67%
    23:00 +16°C° 0 mm 1 m/S 739 mmHg 69%

    7 Juni, Sonntag

    Zeit Temperatur Niederschläge Wind Luftdruck Luftfeuchtigkeit
    00:00 +16°C° 0 mm 1 m/S 738 mmHg 72%
    01:00 +15°C° 0 mm 1 m/S 738 mmHg 75%
    02:00 +15°C° 0 mm 1 m/S 738 mmHg 78%
    03:00 +13°C° 0 mm 0 m/S 738 mmHg 80%
    04:00 +13°C° 0 mm 0 m/S 738 mmHg 81%
    05:00 +13°C° 0 mm 0 m/S 738 mmHg 83%
    06:00 +15°C° 0 mm 0 m/S 738 mmHg 77%
    07:00 +19°C° 0 mm 1 m/S 739 mmHg 71%
    08:00 +21°C° 0 mm 1 m/S 739 mmHg 66%
    09:00 +23°C° 0 mm 1 m/S 739 mmHg 61%
    10:00 +24°C° 0 mm 1 m/S 739 mmHg 57%
    11:00 +26°C° 0 mm 1 m/S 739 mmHg 53%
    12:00 +27°C° 0 mm 1 m/S 739 mmHg 52%
    13:00 +27°C° 0 mm 1 m/S 739 mmHg 50%
    14:00 +28°C° 0 mm 2 m/S 738 mmHg 49%
    15:00 +28°C° 0 mm 2 m/S 738 mmHg 49%
    16:00 +28°C° 0 mm 2 m/S 738 mmHg 50%
    17:00 +28°C° 0 mm 2 m/S 738 mmHg 50%
    18:00 +26°C° 0 mm 1 m/S 738 mmHg 57%
    19:00 +24°C° 0 mm 1 m/S 738 mmHg 63%
    20:00 +22°C° 0 mm 1 m/S 738 mmHg 70%
    21:00 +21°C° 0 mm 1 m/S 738 mmHg 72%
    22:00 +21°C° 0 mm 1 m/S 738 mmHg 75%
    23:00 +20°C° 0 mm 1 m/S 738 mmHg 77%

    8 Juni, Montag

    Zeit Temperatur Niederschläge Wind Luftdruck Luftfeuchtigkeit
    00:00 +17°C° 0 mm 0 m/S 738 mmHg 79%
    01:00 +17°C° 0 mm 0 m/S 738 mmHg 80%
    02:00 +17°C° 0 mm 0 m/S 738 mmHg 82%
    03:00 +16°C° 0 mm 0 m/S 738 mmHg 84%
    04:00 +16°C° 0 mm 0 m/S 738 mmHg 85%
    05:00 +16°C° 0 mm 0 m/S 738 mmHg 86%
    06:00 +18°C° 0 mm 0 m/S 738 mmHg 81%
    07:00 +20°C° 0 mm 0 m/S 738 mmHg 76%
    08:00 +23°C° 0 mm 1 m/S 738 mmHg 71%
    09:00 +25°C° 0.3 mm 1 m/S 738 mmHg 68%
    10:00 +26°C° 0.3 mm 1 m/S 738 mmHg 64%
    11:00 +27°C° 0.3 mm 1 m/S 738 mmHg 60%
    12:00 +27°C° 0.4 mm 1 m/S 738 mmHg 59%
    13:00 +28°C° 0.4 mm 1 m/S 738 mmHg 57%
    14:00 +28°C° 0.4 mm 1 m/S 738 mmHg 55%
    15:00 +28°C° 0.4 mm 1 m/S 737 mmHg 58%
    16:00 +27°C° 0.4 mm 2 m/S 737 mmHg 61%
    17:00 +27°C° 0.4 mm 2 m/S 737 mmHg 64%
    18:00 +25°C° 0.3 mm 2 m/S 737 mmHg 69%
    19:00 +23°C° 0.3 mm 2 m/S 737 mmHg 75%
    20:00 +20°C° 0.3 mm 2 m/S 737 mmHg 80%
    21:00 +20°C° 0.4 mm 2 m/S 737 mmHg 82%
    22:00 +19°C° 0.4 mm 2 m/S 737 mmHg 84%
    23:00 +20°C° 0.4 mm 1 m/S 738 mmHg 87%
    Mehr zeigen